Flag for U.S.A. Weather past 2 weeks in Wilmington, Delaware, U.S.A.

Now
81 °F

Sunny.


Feels Like: 81 °F
Forecast: 66 / 83 °F
Wind: 10 mph from Northeast

Location: New Castle County Airport

Current Time: Sep 5, 2015 at 12:47:50 PM

Latest Report: Sep 5, 2015 at 11:51 AM


Visibility: 10 mi

Pressure: 30.24 "Hg

Humidity: 45%

Dew point: 58 °F

Location of WilmingtonLocation

Historic Weather in Wilmington — Graph

°F

Wilmington temperature yesterday

Maximum temperature yesterday: 91 °F (at 1:51 PM)
Minimum temperature yesterday: 71 °F (at 4:51 AM)
Average temperature yesterday: 79 °F

Past Weeks' High & Low Weather Summary

 TemperatureHumidityPressure
High94 °F (Sep 3, 2:51 PM)100% (Sep 2, 6:51 AM)30.25 "Hg (Sep 2, 6:51 AM)
Low57 °F (Aug 28, 6:51 AM)29% (Sep 2, 4:51 PM)29.83 "Hg (Sep 3, 5:51 PM)
Average76 °F64%30.03 "Hg
* Reported Aug 21 11:04 AM — Sep 5 11:51 AM, Wilmington, Weather by CustomWeather, © 2015

Note: Actual official high and low records may vary slightly from our data, if they occured in-between our weather recording intervals... More about our weather records

Advertising

Wilmington weather history for previous 24 hours

 ConditionsComfort  
Time TempWeatherWind HumidityBarometerVisibility
11:51 AM
Sat, Sep 5
81 °FSunny.10 mph45%30.24 "Hg10 mi
10:51 AM79 °FSunny.12 mph54%30.25 "Hg10 mi
9:51 AM76 °FPassing clouds.9 mph62%30.25 "Hg10 mi
8:51 AM75 °FPartly sunny.12 mph66%30.24 "Hg10 mi
7:51 AM72 °FOvercast.13 mph73%30.24 "Hg10 mi
6:51 AM72 °FOvercast.14 mph76%30.23 "Hg10 mi
5:51 AM72 °FOvercast.8 mph76%30.22 "Hg10 mi
4:51 AM72 °FOvercast.12 mph78%30.20 "Hg10 mi
3:51 AM71 °FPassing clouds.9 mph81%30.19 "Hg10 mi
2:51 AM72 °FClear.10 mph78%30.18 "Hg10 mi
1:51 AM73 °FPassing clouds.8 mph79%30.18 "Hg10 mi
12:51 AM75 °FOvercast.9 mph74%30.18 "Hg10 mi
11:51 PM
Fri, Sep 4
75 °FOvercast.8 mph74%30.18 "Hg10 mi
10:51 PM76 °FOvercast.9 mph72%30.17 "Hg10 mi
9:51 PM76 °FOvercast.9 mph74%30.16 "Hg10 mi
8:51 PM77 °FMostly cloudy.12 mph71%30.14 "Hg10 mi
7:51 PM78 °FOvercast.13 mph71%30.10 "Hg9 mi
6:51 PM80 °FPartly sunny.9 mph69%30.09 "Hg8 mi
5:51 PM81 °FSunny.13 mph69%30.07 "Hg8 mi
4:51 PM81 °FSunny.8 mph67%30.06 "Hg10 mi
3:51 PM79 °FSunny.9 mph67%30.06 "Hg10 mi
2:51 PM87 °FThunderstorms. Scattered clouds.15 mph53%30.04 "Hg6 mi
1:51 PM91 °FPartly sunny.6 mph45%30.03 "Hg7 mi
12:51 PM90 °FHaze.6 mph48%30.03 "Hg6 mi
Weather by CustomWeather, © 2015

See weather overviewHow to use our weather pages